Hourly Data Report for October 15, 2013

All times are specified in Local Standard Time (LST). Add 1 hour to adjust for Daylight Saving Time where and when it is observed.

IQALUIT CLIMATE
NUNAVUT

63°44'50.000" N
68°32'40.000" W
33.50 m
2402592
71321
XFB

Download Data

Hourly Data (October 2013)
Hourly Data Report for October 15, 2013
Temp Definition
°C
Dew Point Temp Definition
°C
Rel Hum Definition
%
Wind Dir Definition
10's deg

Wind Spd Definition
km/h
Visibility Definition
km
Stn Press Definition
kPa
Hmdx Definition


Wind Chill Definition


Weather Definition


TIME
00:00 1.9 0.4 90 14 26   100.65     LegendNANA
01:00 2.0 0.3 88 13 28   100.68     LegendNANA
02:00 2.1 0.5 89 13 28   100.71     LegendNANA
03:00 1.6 0.3 91 14 30   100.70     LegendNANA
04:00 1.7 0.4 91 14 30   100.69     LegendNANA
05:00 1.5 0.6 94 14 32   100.74     LegendNANA
06:00 1.2 0.5 95 14 30   100.76     LegendNANA
07:00 1.4 0.5 94 15 32   100.79     LegendNANA
08:00 1.4 0.5 94 14 28   100.82     LegendNANA
09:00 1.4 0.5 94 15 28   100.85     LegendNANA
10:00 1.8 0.6 92 15 28   100.86     LegendNANA
11:00 2.5 0.6 87 14 30   100.87     LegendNANA
12:00 2.2 0.4 88 14 28   100.88     LegendNANA
13:00 2.4 0.3 86 14 26   100.87     LegendNANA
14:00 2.2 0.2 87 14 30   100.89     LegendNANA
15:00 1.9 0.3 89 14 24   100.92     LegendNANA
16:00 1.8 0.1 88 14 26   100.93     LegendNANA
17:00 1.9 -0.1 87 14 32   100.97     LegendNANA
18:00 1.7 0.1 89 14 28   101.00     LegendNANA
19:00 1.6 0.1 90 14 30   101.03     LegendNANA
20:00 1.3 0.4 94 15 24   101.05     LegendNANA
21:00 1.0 0.5 96 15 19   101.06     LegendNANA
22:00 1.4 0.4 93 16 15   101.07     LegendNANA
23:00 1.2 0.4 94 16 11   101.08     LegendNANA

Notes on Data Quality.

Legend

  • E = Estimated
  • M = Missing
  • NA = Not Available
  • ‡ = Partner data that is not subject to review by the National Climate Archives
Date modified: